Wind_Speed
13 13 12 2 2 1 2 4 3 5 1 1 14 3 5 4 3 3 15 23 30 29 24 22 22 20 19 19 19 18 19 18 17 17 16 15 15 14 15 14 13 12 12 11 10 10 10 11 11
17 14 4 1 2 1 2 2 7 10 1 9 7 8 4 3 4 10 13 29 32 29 26 22 22 21 20 19 19 16 18 17 16 16 16 14 14 13 14 14 13 12 11 10 10 10 11 11 11
18 8 1 1 1 1 1 3 2 7 11 11 5 7 3 3 9 19 20 32 33 29 26 23 21 21 19 18 18 16 17 16 15 15 14 14 13 15 13 12 11 11 11 11 11 10 10 11 12
10 3 2 2 2 3 3 3 4 5 4 7 10 8 4 3 17 11 33 33 33 30 27 23 21 20 18 17 17 15 17 15 15 15 13 13 13 13 13 12 10 10 12 11 11 11 10 10 10
2 1 0 2 3 3 3 4 8 9 5 4 3 5 5 9 11 31 32 32 33 31 26 23 21 19 18 16 16 15 16 14 15 14 14 14 14 13 12 12 11 10 12 12 12 11 10 10 9
2 2 0 2 2 4 1 1 3 9 8 8 8 10 4 17 28 27 30 30 31 31 25 23 20 18 17 15 15 14 15 14 14 14 14 14 14 13 12 11 11 11 11 12 12 12 12 11 11
1 2 1 2 3 3 2 4 1 6 7 5 14 5 5 16 25 26 30 30 30 27 25 23 21 18 16 15 14 14 14 14 14 13 13 14 13 12 10 10 11 12 13 13 13 12 12 10 9
3 2 2 4 3 3 1 4 5 5 4 12 11 7 9 17 27 29 30 28 28 26 24 24 22 19 18 15 14 13 13 12 12 12 12 12 10 9 9 10 10 11 13 13 13 13 12 10 8
2 1 2 3 6 3 3 4 3 9 12 3 6 5 21 32 30 29 27 26 26 25 24 24 22 20 19 16 14 13 12 12 11 10 10 10 11 10 9 8 9 10 10 12 12 12 10 9 9
3 2 6 4 3 4 6 5 7 6 8 5 10 21 31 30 29 28 26 25 24 24 26 25 22 21 19 17 16 15 13 13 12 11 10 10 10 9 8 7 7 8 8 7 10 10 8 8 6
6 5 1 3 7 9 5 4 6 10 3 6 21 24 25 28 27 27 25 25 26 25 27 26 23 21 20 19 17 16 15 14 13 11 10 8 7 7 7 7 5 5 7 9 8 8 8 6 5
4 9 6 4 5 3 3 7 5 10 5 16 22 29 26 22 22 28 26 26 24 25 25 28 25 23 20 18 17 16 16 15 12 10 8 8 7 6 6 5 4 6 8 7 8 5 4 5 7
11 4 3 10 7 4 4 7 4 8 8 19 23 22 22 18 24 27 25 24 23 24 26 30 26 24 22 19 17 17 15 13 11 9 8 9 8 6 7 5 4 6 7 6 6 2 5 5 4
5 12 9 6 5 5 6 5 7 5 16 21 24 23 19 18 24 25 24 25 27 28 31 31 28 25 22 20 18 17 15 13 11 10 9 8 9 7 6 5 5 4 6 5 6 5 5 4 5
6 4 5 5 4 5 6 3 6 16 17 23 22 19 17 16 23 24 26 26 30 32 32 32 29 25 24 21 19 18 16 13 11 9 9 8 8 8 7 6 6 4 2 3 3 4 5 2 3
6 3 2 2 6 5 8 5 3 17 19 21 21 19 17 18 23 23 27 27 29 30 33 32 30 28 25 23 20 18 16 14 12 11 10 10 6 6 6 6 5 5 5 3 4 3 7 4 3
4 4 6 4 6 3 5 3 10 14 16 20 20 19 17 16 19 24 26 29 32 34 34 32 31 30 27 24 21 19 16 15 13 14 15 12 9 8 7 6 7 6 5 2 3 3 4 6 3
6 4 5 5 5 8 6 0 13 14 16 21 21 19 19 19 19 26 26 28 31 33 34 33 33 31 29 26 22 19 17 17 16 14 16 16 13 11 9 8 8 8 4 3 3 2 4 7 5
4 5 6 6 6 6 11 6 15 16 13 16 19 20 21 21 21 25 25 27 29 32 34 35 35 34 30 30 26 21 20 17 13 14 14 16 16 13 10 8 8 8 5 5 4 2 5 5 9
6 2 4 4 3 8 7 13 14 20 23 23 21 21 20 17 17 23 26 27 30 32 37 37 37 37 33 32 29 24 23 20 14 12 14 17 17 14 12 10 7 9 6 4 4 3 4 4 9
11 7 4 2 3 6 2 7 9 14 9 14 15 16 18 22 21 20 26 30 29 33 37 39 40 39 37 34 30 23 21 19 18 15 13 17 18 15 14 11 9 7 6 5 5 4 2 5 6
11 12 14 5 1 4 6 4 7 11 18 19 17 18 19 20 19 18 24 28 30 33 35 40 41 41 39 36 34 32 27 24 25 23 18 15 16 18 16 13 10 9 8 7 7 6 6 6 6
13 7 10 8 4 3 4 0 7 12 12 18 20 20 20 21 21 22 24 34 33 30 33 38 41 41 40 40 39 38 33 29 25 25 22 18 15 15 17 16 12 10 10 8 9 9 8 8 9
3 1 4 3 4 10 13 9 6 7 13 16 19 21 21 21 22 20 28 29 31 32 32 35 39 42 42 40 42 41 38 36 29 26 26 24 21 18 18 18 16 13 12 11 11 9 10 10 9
12 9 2 3 4 15 9 9 12 6 11 17 23 23 23 22 20 20 20 26 31 33 32 34 37 38 41 43 42 43 42 40 38 34 32 30 26 24 22 21 20 18 15 12 11 12 12 13 12
11 12 6 8 6 14 6 8 6 19 8 17 16 22 19 18 19 22 22 29 33 36 36 37 38 37 39 42 43 44 43 42 39 35 31 31 31 29 22 22 22 21 18 16 15 16 16 15 14
6 16 11 4 3 1 9 4 8 5 11 11 17 13 18 21 21 21 21 32 35 35 40 39 38 39 41 45 44 41 43 42 39 39 33 30 28 27 24 23 24 25 23 22 19 18 17 17 17
8 6 7 4 7 5 4 6 8 9 9 9 8 13 15 19 19 19 18 30 38 39 39 39 42 42 42 44 43 42 43 46 44 41 37 32 29 26 26 22 25 25 27 25 24 22 20 20 21
7 8 5 7 7 7 2 6 7 11 15 14 11 14 16 18 20 21 20 29 34 36 37 39 39 39 37 38 40 39 40 41 42 43 41 36 31 29 29 27 24 25 26 27 28 26 25 24 23
3 4 4 8 12 7 3 7 5 10 9 13 15 14 15 18 21 22 22 26 28 35 36 38 39 37 40 41 40 40 39 39 40 41 43 38 34 31 31 29 26 27 28 27 26 28 27 27 26
Wind_Direction
164 165 169 198 222 228 269 214 177 157 231 193 152 152 149 24 129 177 152 142 148 146 141 138 136 131 128 124 125 124 122 120 122 121 122 126 130 132 132 127 128 123 120 108 98 94 95 99 106
162 161 191 277 284 155 273 82 200 166 208 128 116 94 61 90 85 121 135 149 149 148 144 143 141 135 131 128 125 122 122 121 121 117 118 121 128 128 120 123 122 125 122 116 105 100 97 100 107
166 166 269 205 279 248 290 30 355 139 146 136 100 50 66 90 119 138 152 151 150 148 147 145 143 136 135 130 126 126 123 122 123 118 124 124 121 121 119 119 121 124 110 105 107 106 99 103 104
159 207 238 210 194 259 220 324 310 129 57 67 110 78 71 264 135 152 148 151 152 151 147 150 144 137 137 132 128 127 126 119 117 116 116 112 110 110 113 114 113 105 107 107 110 109 112 108 108
224 204 238 182 241 254 221 282 261 150 90 78 120 100 95 119 132 139 150 153 151 154 151 148 145 141 140 139 128 130 128 120 118 118 115 116 113 111 111 110 109 101 98 104 103 108 120 112 101
183 84 144 234 250 292 202 121 332 118 134 141 104 117 96 132 135 147 151 154 157 155 155 149 148 147 144 142 136 134 133 126 122 124 122 118 116 114 113 110 105 99 94 96 106 114 116 109 102
143 133 232 296 268 277 68 131 113 84 127 128 142 100 113 143 144 149 155 156 156 157 154 156 153 151 149 146 142 141 139 137 134 130 121 124 120 116 115 112 107 99 95 94 104 116 120 110 104
154 140 200 221 241 281 58 169 143 113 70 123 143 154 159 157 148 156 157 159 160 158 163 160 158 157 157 149 150 147 144 141 135 133 133 125 119 121 119 115 108 104 98 95 100 113 122 111 96
137 73 247 232 183 230 221 163 126 103 138 157 155 129 145 146 149 149 154 160 164 166 169 167 165 164 160 157 153 153 149 147 139 136 136 140 133 131 122 111 104 101 98 105 105 108 116 115 103
164 187 225 216 178 189 136 126 136 127 131 66 92 117 142 148 151 157 163 166 168 173 176 174 173 169 165 162 160 162 156 153 150 148 139 140 135 130 127 117 103 103 104 98 106 114 121 123 117
171 217 232 248 220 150 138 132 161 136 196 168 149 148 152 154 157 164 169 172 173 176 180 181 179 175 172 170 168 167 164 161 157 154 154 154 151 152 141 130 126 118 107 109 116 123 137 146 153
222 232 253 302 206 156 180 140 165 170 202 153 161 159 156 158 164 169 173 175 175 178 184 184 185 180 180 176 174 173 173 170 170 174 179 180 169 157 152 142 116 124 121 126 119 114 133 168 200
229 244 225 246 285 292 153 198 191 190 112 141 149 160 164 159 164 172 175 178 176 181 186 188 188 186 184 184 181 183 184 181 176 180 172 184 186 168 157 146 130 115 112 113 118 115 126 122 175
219 238 272 287 261 243 201 208 146 117 133 142 154 165 170 168 168 170 174 179 183 186 189 189 192 191 189 190 189 188 189 189 191 189 191 178 165 155 180 177 153 131 126 105 123 130 106 96 89
278 336 328 233 206 239 159 212 207 144 146 150 157 165 171 176 177 180 180 181 186 192 192 194 194 196 196 195 195 194 193 195 197 194 194 186 180 196 196 177 169 171 154 109 128 130 130 104 134
175 100 336 278 178 210 147 244 130 154 150 158 163 170 180 186 188 182 185 186 190 191 197 198 198 199 201 200 197 199 200 206 217 218 217 210 196 196 178 180 173 162 152 139 115 116 151 167 114
357 188 202 303 196 142 161 244 156 161 156 164 171 175 185 190 194 190 187 190 191 195 198 201 201 202 202 202 199 198 206 221 233 241 232 224 223 212 199 187 178 177 171 175 147 154 151 151 134
189 175 209 193 219 185 193 206 155 173 170 173 176 182 190 195 199 194 190 191 194 198 202 203 204 205 203 203 205 208 217 235 243 228 223 224 226 213 209 192 189 188 169 185 207 205 169 160 127
175 187 187 220 210 152 208 181 182 182 183 184 181 186 197 202 197 197 198 190 193 200 204 205 205 207 206 205 208 212 216 210 219 214 218 214 218 215 211 202 192 195 192 173 169 142 134 137 155
256 231 225 282 234 174 213 220 186 184 194 188 186 188 196 199 203 201 198 197 196 196 205 206 208 208 208 210 209 211 208 204 208 207 215 211 214 212 213 216 203 188 188 177 166 188 150 132 166
231 216 226 187 352 220 164 257 169 203 196 202 207 203 194 190 196 200 200 200 198 199 202 205 209 210 210 210 213 210 214 216 209 203 205 205 214 217 218 219 213 201 203 202 188 181 213 158 175
224 219 242 267 31 221 170 256 228 182 201 200 202 202 199 198 198 199 199 204 202 202 202 208 212 212 212 213 214 213 211 209 215 209 205 204 212 221 223 221 223 225 220 205 195 200 217 202 190
232 163 209 233 216 327 261 186 254 178 204 207 205 207 203 200 196 200 201 203 206 200 201 205 211 212 215 216 217 218 217 223 224 221 214 211 215 220 223 226 228 229 224 224 212 212 219 222 218
170 62 137 120 154 243 225 210 262 184 211 208 211 211 207 203 202 199 202 203 208 208 202 203 207 212 215 218 219 219 219 222 223 223 222 218 220 221 224 227 233 238 235 232 223 227 227 227 221
181 148 265 199 206 233 214 214 235 208 216 204 204 209 210 206 198 198 192 197 204 206 201 200 204 206 211 215 217 219 223 226 228 230 228 225 224 224 225 228 232 237 242 239 235 232 234 224 226
200 181 171 193 212 229 181 216 239 222 219 213 211 210 207 208 204 198 194 196 201 202 202 199 202 203 206 210 215 221 222 226 229 232 232 228 228 229 229 231 236 239 239 239 239 240 240 231 230
193 209 180 104 203 163 204 254 307 193 216 215 221 199 199 203 204 209 196 199 199 202 200 199 200 204 205 210 214 216 221 223 227 232 232 230 228 225 228 234 238 240 240 240 237 238 238 235 236
206 177 184 203 205 220 244 205 208 205 220 215 206 202 202 201 201 206 200 197 200 202 202 199 203 203 204 208 211 214 218 224 228 232 231 230 230 227 226 234 238 241 241 241 239 240 241 239 245
190 216 236 182 202 207 183 238 209 202 204 215 209 200 196 197 200 202 202 202 198 200 198 197 199 203 203 205 206 207 213 218 221 229 232 231 231 229 228 233 237 239 241 243 241 241 242 242 246
340 240 254 209 217 226 134 249 233 203 218 221 205 203 202 200 205 203 204 197 188 194 195 194 198 199 203 204 203 206 210 212 216 222 231 231 230 228 227 229 233 239 242 244 245 240 241 243 246
Height
777 780 782 783 792 790 794 784 771 780 780 767 769 774 781 784 790 813 799 802 807 811 815 818 820 822 824 826 827 828 829 831 832 833 834 835 837 838 838 840 841 841 842 843 844 844 845 845 845
778 781 784 781 792 803 793 776 775 771 765 762 772 775 783 794 791 796 801 803 808 812 816 820 822 824 826 828 830 831 831 833 835 835 836 838 839 839 842 842 842 843 844 845 846 847 847 847 848
778 780 783 785 792 796 789 773 773 766 763 766 778 778 785 793 793 797 800 804 809 814 818 822 824 826 829 831 832 833 834 835 837 838 839 839 841 842 843 844 844 843 845 846 847 849 849 849 850
778 781 782 793 792 782 776 772 768 771 772 769 775 791 789 790 794 797 800 805 810 815 820 823 826 828 830 832 833 835 836 837 839 840 841 842 843 844 845 846 846 846 848 848 849 850 850 851 852
777 778 792 793 783 776 767 764 763 768 775 776 776 794 796 795 795 800 804 808 811 817 821 825 828 830 832 834 835 837 838 839 841 842 843 844 846 847 848 848 848 849 849 850 850 851 852 853 853
777 781 797 798 785 770 762 764 761 766 775 781 786 790 797 798 799 803 806 810 813 817 822 826 829 831 834 836 838 839 840 842 843 844 845 846 848 850 851 851 851 851 851 851 851 852 854 855 855
781 789 792 786 783 773 766 761 764 766 772 779 778 793 797 800 802 806 809 813 816 820 824 827 830 833 836 838 840 841 842 843 845 846 848 849 850 852 853 853 853 853 853 853 854 854 856 857 857
775 784 789 783 783 780 760 762 757 763 774 771 775 792 797 795 802 806 812 816 818 822 826 828 831 834 837 839 841 842 844 845 846 848 849 851 853 854 855 855 855 856 855 855 856 856 857 859 860
770 790 794 778 778 766 758 761 755 757 769 770 774 777 785 793 801 808 813 818 821 824 826 828 831 834 837 840 842 843 845 847 848 850 851 852 854 855 856 857 857 857 858 857 858 859 860 861 861
774 792 778 760 757 762 756 755 760 766 772 779 779 781 790 795 800 806 811 816 820 824 826 829 832 834 838 840 842 844 846 848 850 851 852 854 855 857 857 858 858 859 860 859 861 860 861 862 863
771 781 762 754 747 752 756 757 754 766 777 776 779 784 788 795 800 805 812 815 818 822 825 829 831 835 838 840 842 844 846 849 851 852 854 855 857 857 858 859 860 860 860 861 861 862 862 863 864
774 760 760 750 746 751 756 752 759 759 762 760 771 775 783 790 797 802 809 814 817 821 824 828 831 835 838 840 843 845 847 849 851 853 854 856 857 858 858 860 861 861 862 862 862 863 864 864 864
766 759 754 749 749 750 749 756 757 760 758 761 773 783 788 792 797 803 809 814 816 819 822 827 830 834 837 840 842 844 847 850 851 852 854 856 857 858 859 860 861 862 863 864 864 865 865 865 865
753 754 755 750 751 750 755 752 753 761 760 766 774 784 789 792 795 801 806 810 813 816 820 825 829 832 836 839 841 844 847 850 851 853 854 856 857 858 860 861 862 863 864 864 866 866 866 866 866
751 762 754 751 748 751 746 762 760 759 762 769 776 784 790 794 796 798 803 806 810 814 819 823 827 831 834 838 841 844 846 849 851 853 855 856 857 859 861 861 863 864 864 865 866 866 866 867 868
762 764 776 750 743 744 748 774 759 757 763 772 776 782 788 791 792 796 801 805 809 813 817 822 826 829 833 836 840 843 846 848 851 853 854 856 857 859 861 862 862 863 865 866 867 867 867 868 869
775 784 776 763 741 744 750 763 759 759 764 772 777 781 787 792 793 794 798 802 805 809 814 820 824 827 831 836 839 842 845 847 849 851 853 855 857 859 861 862 863 864 865 866 867 868 868 870 870
785 780 770 767 748 747 756 760 762 763 766 767 772 778 782 785 786 791 795 799 804 807 812 817 822 826 829 834 838 842 844 846 848 849 851 854 857 858 860 862 863 864 865 866 866 868 869 870 871
763 767 766 754 742 751 756 760 761 762 767 770 769 773 776 778 783 789 793 796 800 805 809 813 818 823 827 831 835 840 841 844 846 848 850 853 856 858 859 861 862 864 865 867 867 867 869 870 871
765 766 766 753 739 749 753 756 755 758 755 755 760 766 771 777 781 784 788 792 795 799 804 809 814 819 823 828 832 837 840 842 845 848 849 851 854 857 859 861 862 864 865 866 866 867 869 870 872
771 775 768 761 750 743 748 760 760 755 754 757 757 758 761 764 772 777 782 785 791 794 798 804 809 815 820 824 830 835 839 842 844 846 848 850 852 855 858 860 862 863 864 865 867 867 869 870 872
781 758 759 763 766 782 748 791 756 750 753 752 751 753 755 759 764 769 775 781 783 787 794 800 805 810 816 821 825 830 834 837 840 843 847 849 851 853 856 859 861 862 863 865 866 868 869 870 871
756 752 762 763 770 770 762 775 759 741 755 748 744 743 745 749 753 759 763 769 777 784 788 794 800 805 811 816 820 825 830 834 838 841 845 847 849 851 854 857 859 861 863 865 866 867 868 869 870
738 749 759 765 778 788 762 764 760 751 734 738 735 734 736 740 745 750 759 768 774 779 783 789 794 799 804 810 816 819 824 829 834 837 841 844 846 849 851 854 857 860 862 864 865 866 867 868 869
744 763 797 803 800 771 751 766 744 723 714 714 720 721 723 729 738 743 750 757 765 772 775 781 787 792 797 803 808 814 818 823 828 831 835 839 842 844 848 852 855 858 860 862 863 865 865 867 868
743 754 786 802 791 762 756 762 737 705 702 700 703 706 715 724 727 730 737 745 753 761 767 771 778 785 791 796 801 806 813 817 822 826 830 833 836 840 845 849 852 854 857 859 861 862 863 865 867
740 748 740 766 767 775 740 736 713 703 704 701 700 705 709 713 719 723 727 735 742 751 756 762 769 776 782 788 794 800 806 811 816 821 826 829 832 837 842 845 848 851 854 856 858 860 861 862 864
731 723 751 763 773 781 753 744 731 713 710 704 703 702 701 702 708 713 720 724 730 739 748 754 761 767 773 780 786 792 798 803 809 816 821 824 829 834 837 840 843 846 849 852 855 856 858 859 860
726 732 730 729 749 756 764 736 706 701 694 693 695 690 692 695 697 701 707 712 722 732 740 745 753 761 769 774 779 785 791 797 803 809 814 819 824 828 832 836 839 842 844 846 849 852 854 855 856
739 738 731 729 742 740 749 731 685 686 686 680 680 681 680 682 683 688 695 705 713 720 729 735 744 752 759 764 772 778 784 791 796 802 807 813 818 823 827 831 834 836 838 841 843 846 849 850 852